Garrett, IN

9:57 AM EST on December 09, 2016 (GMT -0500)
Auburn

Weather History for KGWB - March, 2014

Change the Weather History Date:

Wednesday, March 26, 2014

  Actual Average (KFWA) Record (KFWA)
Temperature  
Mean Temperature 26 °F -  
Max Temperature 35 °F 49 °F 83 °F (1907)
Min Temperature 17 °F 30 °F 5 °F (2001)
Degree Days  
Heating Degree Days 39    
Moisture  
Dew Point 13 °F    
Average Humidity 59    
Maximum Humidity 86    
Minimum Humidity 38    
Precipitation  
Precipitation 0.00 in - - ()
Sea Level Pressure  
Sea Level Pressure 30.25 in    
Wind  
Wind Speed 4 mph (WSW)    
Max Wind Speed 9 mph    
Max Gust Speed 16 mph    
Visibility 10 miles    
Events Snow    
Averages and records for this station are not official NWS values.
T = Trace of Precipitation, MM = Missing Value Source: NWS Daily Summary

Daily Weather History Graph

Daily Weather History Graph

Search for Another Location

Airport or City:

Trip Planner

Search our weather history database for the weather conditions in past years. The results will help you decide how hot, cold, wet, or windy it might be!

Date:

Astronomy

Mar. 26, 2014 Rise Set
Actual Time 7:33 AM EDT 7:58 PM EDT
Civil Twilight 7:05 AM EDT 8:26 PM EDT
Nautical Twilight 6:33 AM EDT 8:59 PM EDT
Astronomical Twilight 5:59 AM EDT 9:32 PM EDT
Moon 4:44 AM EDT (3/26) 3:34 PM EDT (3/26)
Length of Visible Light 13h 20m
Length of Day
12h 25m
Waning Crescent, 22% of the Moon is Illuminated
Mar 26
Waning Crescent
Mar 30
New
Apr 7
First Quarter
Apr 15
Full
Apr 22
Last Quarter

Hourly Weather History & Observations

Time (EDT) Temp. Windchill Dew Point Humidity Pressure Visibility Wind Dir Wind Speed Gust Speed Precip Events Conditions
12:15 AM 19.4 °F 12.8 °F 10.4 °F 68% 30.20 in 10.0 mi West 4.6 mph - N/A   Clear
12:35 AM 19.4 °F 14.3 °F 10.4 °F 68% 30.20 in 10.0 mi WNW 3.5 mph - N/A   Mostly Cloudy
12:55 AM 19.4 °F 14.3 °F 10.4 °F 68% 30.20 in 10.0 mi West 3.5 mph - N/A   Mostly Cloudy
1:15 AM 19.4 °F 14.3 °F 12.2 °F 74% 30.21 in 10.0 mi WNW 3.5 mph - N/A   Overcast
1:35 AM 19.4 °F 14.3 °F 12.2 °F 74% 30.21 in 10.0 mi West 3.5 mph - N/A   Mostly Cloudy
1:55 AM 19.4 °F 12.8 °F 12.2 °F 74% 30.22 in 10.0 mi West 4.6 mph - N/A   Mostly Cloudy
2:15 AM 19.4 °F 14.3 °F 12.2 °F 74% 30.22 in 10.0 mi West 3.5 mph - N/A   Overcast
2:35 AM 21.2 °F 16.4 °F 12.2 °F 68% 30.22 in 7.0 mi WNW 3.5 mph - N/A Snow Light Snow
2:55 AM 19.4 °F 12.8 °F 12.2 °F 74% 30.22 in 7.0 mi WNW 4.6 mph - N/A Snow Light Snow
3:15 AM 19.4 °F - 14.0 °F 80% 30.22 in 7.0 mi Calm Calm - N/A   Overcast
3:35 AM 19.4 °F 14.3 °F 14.0 °F 80% 30.22 in 10.0 mi WNW 3.5 mph - N/A   Overcast
3:55 AM 19.4 °F 14.3 °F 14.0 °F 80% 30.23 in 10.0 mi West 3.5 mph - N/A   Overcast
4:15 AM 19.4 °F - 14.0 °F 80% 30.22 in 7.0 mi Calm Calm - N/A Snow Light Snow
4:35 AM 19.4 °F - 14.0 °F 80% 30.23 in 10.0 mi Calm Calm - N/A   Mostly Cloudy
4:55 AM 19.4 °F - 14.0 °F 80% 30.23 in 10.0 mi Calm Calm - N/A   Mostly Cloudy
5:15 AM 19.4 °F - 14.0 °F 80% 30.24 in 10.0 mi Calm Calm - N/A   Mostly Cloudy
5:35 AM 17.6 °F - 14.0 °F 86% 30.25 in 10.0 mi Calm Calm - N/A   Scattered Clouds
5:55 AM 17.6 °F - 12.2 °F 79% 30.25 in 10.0 mi Calm Calm - N/A   Clear
6:15 AM 17.6 °F - 12.2 °F 79% 30.25 in 10.0 mi Calm Calm - N/A   Clear
6:35 AM 17.6 °F 12.3 °F 12.2 °F 79% 30.25 in 10.0 mi SW 3.5 mph - N/A   Clear
6:55 AM 17.6 °F 12.3 °F 12.2 °F 79% 30.27 in 10.0 mi SW 3.5 mph - N/A   Scattered Clouds
7:15 AM 17.6 °F - 14.0 °F 86% 30.27 in 10.0 mi Calm Calm - N/A   Mostly Cloudy
7:35 AM 17.6 °F - 14.0 °F 86% 30.28 in 10.0 mi Calm Calm - N/A   Mostly Cloudy
7:55 AM 17.6 °F - 12.2 °F 79% 30.28 in 10.0 mi Calm Calm - N/A   Scattered Clouds
8:15 AM 17.6 °F - 14.0 °F 86% 30.29 in 10.0 mi Calm Calm - N/A   Scattered Clouds
8:35 AM 19.4 °F - 14.0 °F 80% 30.31 in 10.0 mi Calm Calm - N/A   Scattered Clouds
8:55 AM 21.2 °F - 15.8 °F 80% 30.32 in 10.0 mi Calm Calm - N/A   Clear
9:15 AM 23.0 °F 18.4 °F 14.0 °F 68% 30.32 in 10.0 mi WSW 3.5 mph - N/A   Clear
9:35 AM 23.0 °F - 12.2 °F 63% 30.33 in 10.0 mi Calm Calm - N/A   Clear
9:55 AM 23.0 °F 18.4 °F 10.4 °F 59% 30.33 in 10.0 mi West 3.5 mph - N/A   Clear
10:15 AM 24.8 °F 20.5 °F 10.4 °F 54% 30.33 in 10.0 mi WNW 3.5 mph - N/A   Scattered Clouds
10:35 AM 26.6 °F 21.2 °F 10.4 °F 51% 30.34 in 10.0 mi SW 4.6 mph - N/A   Scattered Clouds
10:55 AM 26.6 °F 19.1 °F 8.6 °F 47% 30.34 in 10.0 mi West 6.9 mph - N/A   Scattered Clouds
11:15 AM 26.6 °F 17.5 °F 10.4 °F 51% 30.34 in 10.0 mi West 9.2 mph - N/A   Scattered Clouds
11:35 AM 28.4 °F 22.2 °F 8.6 °F 43% 30.34 in 10.0 mi SSW 5.8 mph - N/A   Scattered Clouds
11:55 AM 28.4 °F 23.3 °F 10.4 °F 47% 30.34 in 10.0 mi SW 4.6 mph - N/A   Scattered Clouds
12:15 PM 28.4 °F 21.2 °F 10.4 °F 47% 30.34 in 10.0 mi West 6.9 mph - N/A   Scattered Clouds
12:35 PM 30.2 °F 25.4 °F 10.4 °F 44% 30.34 in 10.0 mi WSW 4.6 mph - N/A   Clear
12:55 PM 30.2 °F 22.6 °F 10.4 °F 44% 30.33 in 10.0 mi WSW 8.1 mph - N/A   Scattered Clouds
1:15 PM 30.2 °F 22.6 °F 10.4 °F 44% 30.32 in 10.0 mi SW 8.1 mph - N/A   Scattered Clouds
1:35 PM 30.2 °F 24.3 °F 10.4 °F 44% 30.31 in 10.0 mi SW 5.8 mph - N/A   Scattered Clouds
1:55 PM 30.2 °F 21.9 °F 10.4 °F 44% 30.30 in 10.0 mi SW 9.2 mph - N/A   Scattered Clouds
2:15 PM 32.0 °F 26.4 °F 10.4 °F 41% 30.29 in 10.0 mi West 5.8 mph - N/A   Scattered Clouds
2:35 PM 32.0 °F 24.8 °F 10.4 °F 41% 30.28 in 10.0 mi West 8.1 mph - N/A   Scattered Clouds
2:55 PM 32.0 °F 24.2 °F 12.2 °F 44% 30.28 in 10.0 mi WSW 9.2 mph 16.1 mph N/A   Clear
3:15 PM 32.0 °F 25.6 °F 10.4 °F 41% 30.26 in 10.0 mi WSW 6.9 mph - N/A   Clear
3:35 PM 32.0 °F 26.4 °F 12.2 °F 44% 30.25 in 10.0 mi WSW 5.8 mph - N/A   Clear
3:55 PM 33.8 °F 27.7 °F 12.2 °F 41% 30.25 in 10.0 mi West 6.9 mph - N/A   Clear
4:15 PM 33.8 °F 27.0 °F 12.2 °F 41% 30.24 in 10.0 mi WSW 8.1 mph - N/A   Clear
4:35 PM 33.8 °F 29.6 °F 12.2 °F 41% 30.23 in 10.0 mi South 4.6 mph - N/A   Clear
4:55 PM 33.8 °F 27.0 °F 12.2 °F 41% 30.22 in 10.0 mi WSW 8.1 mph - N/A   Clear
5:15 PM 35.6 °F 29.9 °F 12.2 °F 38% 30.22 in 10.0 mi SW 6.9 mph - N/A   Clear
5:35 PM 35.6 °F 29.2 °F 12.2 °F 38% 30.21 in 10.0 mi SSW 8.1 mph - N/A   Clear
5:55 PM 35.6 °F 30.7 °F 12.2 °F 38% 30.21 in 10.0 mi SSW 5.8 mph - N/A   Clear
6:15 PM 35.6 °F 29.9 °F 12.2 °F 38% 30.21 in 10.0 mi SW 6.9 mph - N/A   Clear
6:35 PM 35.6 °F 30.7 °F 12.2 °F 38% 30.20 in 10.0 mi South 5.8 mph - N/A   Clear
6:55 PM 33.8 °F 28.6 °F 12.2 °F 41% 30.20 in 10.0 mi SSW 5.8 mph - N/A   Clear
7:15 PM 33.8 °F 29.6 °F 14.0 °F 44% 30.20 in 10.0 mi South 4.6 mph - N/A   Clear
7:35 PM 33.8 °F 29.6 °F 12.2 °F 41% 30.19 in 10.0 mi South 4.6 mph - N/A   Clear
7:55 PM 32.0 °F 27.5 °F 14.0 °F 48% 30.19 in 10.0 mi South 4.6 mph - N/A   Clear
8:15 PM 32.0 °F 28.7 °F 14.0 °F 48% 30.19 in 10.0 mi South 3.5 mph - N/A   Clear
8:35 PM 32.0 °F - 14.0 °F 48% 30.19 in 10.0 mi Calm Calm - N/A   Clear
8:55 PM 30.2 °F - 15.8 °F 55% 30.20 in 10.0 mi Calm Calm - N/A   Clear
9:15 PM 30.2 °F - 17.6 °F 60% 30.20 in 10.0 mi Calm Calm - N/A   Clear
9:35 PM 28.4 °F - 19.4 °F 69% 30.20 in 10.0 mi Calm Calm - N/A   Scattered Clouds
9:55 PM 30.2 °F - 17.6 °F 60% 30.20 in 10.0 mi Calm Calm - N/A   Mostly Cloudy
10:15 PM 30.2 °F - 17.6 °F 60% 30.19 in 10.0 mi Calm Calm - N/A   Overcast
10:35 PM 32.0 °F - 17.6 °F 55% 30.19 in 10.0 mi Calm Calm - N/A   Overcast
10:55 PM 32.0 °F - 15.8 °F 51% 30.18 in 10.0 mi Calm Calm - N/A   Overcast
11:15 PM 32.0 °F 28.7 °F 17.6 °F 55% 30.17 in 10.0 mi SSE 3.5 mph - N/A   Overcast
11:35 PM 32.0 °F 28.7 °F 17.6 °F 55% 30.16 in 10.0 mi SE 3.5 mph - N/A   Overcast
11:55 PM 32.0 °F 28.7 °F 17.6 °F 55% 30.16 in 10.0 mi SSE 3.5 mph - N/A   Overcast